Home > Weather > Fort Worth > Past weeks

Flag for USA Past Weather in Fort Worth, Texas, USA — Yesterday and Last 2 Weeks

Now
80 °F

Clear.


Feels Like: 83 °F
Forecast: 79 / 98 °F
Wind: 10 mph from South

Location: Meacham International Airport

Current Time: Jul 29, 2016 at 5:28:29 AM

Latest Report: Jul 29, 2016 at 4:53 AM


Visibility: 10 mi

Pressure: 29.92 "Hg

Humidity: 71%

Dew Point: 70 °F

Location of Fort WorthLocation

Past Weather in Fort Worth — Graph

°F

Fort Worth Temperature Yesterday

Maximum temperature yesterday: 97 °F (at 3:53 PM)
Minimum temperature yesterday: 78 °F (at 3:53 AM)
Average temperature yesterday: 85 °F

High & Low Weather Summary for the Past Weeks

 TemperatureHumidityPressure
High102 °F (Jul 25, 4:03 PM)79% (Jul 15, 9:53 AM)30.17 "Hg (Jul 15, 9:53 AM)
Low72 °F (Jul 15, 9:00 AM)28% (Jul 22, 4:53 PM)29.82 "Hg (Jul 23, 6:53 PM)
Average89 °F54%29.96 "Hg
* Reported Jul 14 3:53 AM — Jul 29 3:53 AM, Fort Worth, Weather by CustomWeather, © 2016

Note: Actual official high and low records may vary slightly from our data, if they occured in-between our weather recording intervals... More about our weather records

Advertising

Fort Worth Weather History for the Previous 24 Hours

Scroll right to see more
 ConditionsComfort  
Time TempWeatherWind HumidityBarometerVisibility
3:53 AM
Fri, Jul 29
80 °FClear.7 mph71%29.91 "Hg10 mi
2:53 AM80 °FClear.N/A71%29.91 "Hg10 mi
1:53 AM80 °FClear.8 mph76%29.92 "Hg10 mi
12:53 AM81 °FClear.7 mph74%29.91 "Hg10 mi
11:53 PM
Thu, Jul 28
81 °FClear.7 mph77%29.91 "Hg10 mi
10:53 PM82 °FClear.5 mph70%29.91 "Hg10 mi
9:53 PM82 °FClear.N/A70%29.90 "Hg10 mi
8:53 PM82 °FSunny.12 mph67%29.93 "Hg10 mi
7:53 PM85 °FScattered clouds.15 mph68%29.90 "Hg10 mi
6:53 PM87 °FPassing clouds.13 mph57%29.86 "Hg10 mi
5:53 PM83 °FThunderstorms. Mostly cloudy.14 mph70%29.86 "Hg5 mi
4:53 PM96 °FThundershowers. Partly sunny.No wind38%29.85 "Hg10 mi
3:53 PM97 °FPartly sunny.3 mph37%29.87 "Hg10 mi
2:53 PM96 °FPartly sunny.7 mph38%29.88 "Hg10 mi
1:53 PM96 °FScattered clouds.7 mph40%29.90 "Hg10 mi
12:53 PM95 °FPassing clouds.8 mph43%29.92 "Hg10 mi
11:53 AM94 °FPassing clouds.10 mph46%29.95 "Hg10 mi
10:53 AM90 °FSunny.8 mph54%29.96 "Hg10 mi
9:53 AM85 °FPartly sunny.9 mph63%29.97 "Hg10 mi
8:53 AM82 °FSunny.6 mph72%29.97 "Hg10 mi
7:53 AM80 °FPartly sunny.No wind74%29.96 "Hg10 mi
6:53 AM78 °FClear.5 mph79%29.94 "Hg10 mi
5:53 AM79 °FClear.5 mph74%29.93 "Hg10 mi
Weather by CustomWeather, © 2016

See weather overviewHow to use our weather pages